Location: Deurze
(52.9838°N, 6.6090°E)
Time: 18:10:19
(UTC+00:00)

CZ-4 R/B - Pass Details

Date: 11 March 2026
Orbit: 490 x 538 km, 97.6° (Epoch: 20 April)

Event Time Altitude Azimuth Distance (km) Brightness Sun altitude
Exits shadow 20:38:38 - 230° (SW) 1,968 4.3 -27.6°
Reaches altitude 10° 20:39:21 10° 238° (WSW) 1,793 4.2 -27.7°
Maximum altitude 20:41:30 14° 272° (W) 1,543 4.2 -28.0°
Drops below altitude 10° 20:43:40 10° 306° (NW) 1,809 4.9 -28.3°
Sets 20:46:41 0° 331° (NNW) 2,711 5.8 -28.6°
